When you browse on this site, cookies collect data to enhance your experience and personalize the content and advertising you see.
Visit our Privacy Policy to learn more. By continuing to use the site, you agree to this use of cookies and data.
  • In Lithuania
  • List of Countries
  • For 7 days
  • Water Temperature
  • Satellite Maps
  • Weather Map
  • Weather Widgets
  • user-avatar
    Login

    Hourly Weather Nepryadva

    Today, 21 March, Thursday

    Time Temperature Precipitation Wind Pressure Humidity
    00:00 -2°C° 0 mm 2 mps 750 mmHg 95%
    01:00 -3°C° 0 mm 2 mps 750 mmHg 94%
    02:00 -3°C° 0 mm 2 mps 750 mmHg 92%
    03:00 -3°C° 0 mm 2 mps 749 mmHg 91%
    04:00 -4°C° 0 mm 2 mps 749 mmHg 91%
    05:00 -4°C° 0 mm 2 mps 749 mmHg 91%
    06:00 -4°C° 0 mm 2 mps 748 mmHg 91%
    07:00 -3°C° 0 mm 2 mps 748 mmHg 90%
    08:00 -4°C° 0 mm 3 mps 748 mmHg 90%
    09:00 -2°C° 0 mm 3 mps 748 mmHg 89%
    10:00 -2°C° 0 mm 3 mps 748 mmHg 90%
    11:00 -1°C° 0 mm 3 mps 747 mmHg 90%
    12:00 0°C° 0 mm 3 mps 747 mmHg 91%
    13:00 0°C° 0.1 mm 3 mps 747 mmHg 93%
    14:00 0°C° 0.1 mm 3 mps 747 mmHg 94%
    15:00 0°C° 0.1 mm 3 mps 747 mmHg 95%
    16:00 0°C° 0.1 mm 3 mps 746 mmHg 95%
    17:00 +1°C° 0.1 mm 2 mps 746 mmHg 95%
    18:00 -1°C° 0.1 mm 2 mps 746 mmHg 94%
    19:00 -1°C° 0 mm 2 mps 746 mmHg 94%
    20:00 -1°C° 0 mm 2 mps 747 mmHg 95%
    21:00 -1°C° 0 mm 2 mps 747 mmHg 95%
    22:00 -1°C° 0 mm 2 mps 747 mmHg 95%
    23:00 -1°C° 0 mm 2 mps 747 mmHg 95%

    Tomorrow, 22 March, Friday

    Time Temperature Precipitation Wind Pressure Humidity
    00:00 -1°C° 0 mm 2 mps 747 mmHg 94%
    01:00 -2°C° 0 mm 2 mps 747 mmHg 94%
    02:00 -2°C° 0 mm 2 mps 746 mmHg 93%
    03:00 -4°C° 0 mm 3 mps 746 mmHg 93%
    04:00 -4°C° 0 mm 3 mps 746 mmHg 92%
    05:00 -4°C° 0 mm 3 mps 746 mmHg 91%
    06:00 -4°C° 0 mm 3 mps 745 mmHg 90%
    07:00 -2°C° 0 mm 3 mps 745 mmHg 89%
    08:00 -3°C° 0 mm 4 mps 744 mmHg 87%
    09:00 -2°C° 0 mm 4 mps 744 mmHg 86%
    10:00 -1°C° 0.2 mm 5 mps 742 mmHg 89%
    11:00 -2°C° 0.2 mm 6 mps 741 mmHg 91%
    12:00 -1°C° 0.2 mm 7 mps 740 mmHg 94%
    13:00 -1°C° 0.9 mm 7 mps 739 mmHg 95%
    14:00 -1°C° 0.9 mm 7 mps 739 mmHg 95%
    15:00 -1°C° 0.9 mm 7 mps 738 mmHg 96%
    16:00 -1°C° 0.1 mm 7 mps 739 mmHg 88%
    17:00 -2°C° 0.1 mm 7 mps 739 mmHg 80%
    18:00 -2°C° 0.1 mm 7 mps 739 mmHg 72%
    19:00 -3°C° 0 mm 6 mps 740 mmHg 75%
    20:00 -3°C° 0 mm 6 mps 740 mmHg 77%
    21:00 -4°C° 0 mm 5 mps 741 mmHg 80%
    22:00 -4°C° 0.1 mm 5 mps 740 mmHg 83%
    23:00 -4°C° 0.1 mm 5 mps 740 mmHg 85%

    Day after tomorrow, 23 March, Saturday

    Time Temperature Precipitation Wind Pressure Humidity
    00:00 -4°C° 0.1 mm 5 mps 740 mmHg 88%
    01:00 -4°C° 0.1 mm 5 mps 740 mmHg 89%
    02:00 -4°C° 0.1 mm 5 mps 739 mmHg 89%
    03:00 -4°C° 0.1 mm 4 mps 739 mmHg 89%
    04:00 -4°C° 0.1 mm 4 mps 739 mmHg 90%
    05:00 -3°C° 0.1 mm 4 mps 739 mmHg 90%
    06:00 -3°C° 0.1 mm 4 mps 739 mmHg 91%
    07:00 -4°C° 0 mm 5 mps 740 mmHg 90%
    08:00 -4°C° 0 mm 5 mps 740 mmHg 89%
    09:00 -4°C° 0 mm 5 mps 740 mmHg 88%
    10:00 -2°C° 0 mm 5 mps 741 mmHg 89%
    11:00 -2°C° 0 mm 5 mps 742 mmHg 90%
    12:00 -2°C° 0 mm 6 mps 742 mmHg 90%
    13:00 -2°C° 0 mm 6 mps 743 mmHg 90%
    14:00 -2°C° 0 mm 6 mps 743 mmHg 90%
    15:00 -2°C° 0 mm 6 mps 744 mmHg 90%
    16:00 -1°C° 0 mm 5 mps 744 mmHg 89%
    17:00 -1°C° 0 mm 5 mps 744 mmHg 89%
    18:00 -1°C° 0 mm 4 mps 745 mmHg 88%
    19:00 -2°C° 0 mm 4 mps 745 mmHg 89%
    20:00 -1°C° 0 mm 3 mps 746 mmHg 89%
    21:00 -1°C° 0 mm 3 mps 746 mmHg 90%
    22:00 -1°C° 0 mm 2 mps 746 mmHg 89%
    23:00 -1°C° 0 mm 2 mps 746 mmHg 89%

    24 March, Sunday

    Time Temperature Precipitation Wind Pressure Humidity
    00:00 -1°C° 0 mm 2 mps 746 mmHg 88%
    01:00 -2°C° 0 mm 2 mps 746 mmHg 87%
    02:00 -2°C° 0 mm 2 mps 745 mmHg 87%
    03:00 -3°C° 0 mm 2 mps 745 mmHg 87%
    04:00 -3°C° 0 mm 2 mps 745 mmHg 87%
    05:00 -3°C° 0 mm 2 mps 744 mmHg 87%
    06:00 -3°C° 0 mm 2 mps 744 mmHg 87%
    07:00 -2°C° 0 mm 2 mps 744 mmHg 87%
    08:00 -2°C° 0 mm 3 mps 743 mmHg 86%
    09:00 -1°C° 0 mm 3 mps 743 mmHg 86%
    10:00 -2°C° 0.4 mm 4 mps 743 mmHg 89%
    11:00 -2°C° 0.4 mm 4 mps 742 mmHg 91%
    12:00 -2°C° 0.4 mm 4 mps 742 mmHg 94%
    13:00 -1°C° 0.2 mm 4 mps 742 mmHg 95%
    14:00 -1°C° 0.2 mm 4 mps 742 mmHg 95%
    15:00 -1°C° 0.2 mm 4 mps 742 mmHg 96%
    16:00 -1°C° 0 mm 4 mps 742 mmHg 91%
    17:00 0°C° 0 mm 4 mps 742 mmHg 86%
    18:00 0°C° 0 mm 4 mps 742 mmHg 81%
    19:00 -1°C° 0 mm 4 mps 743 mmHg 81%
    20:00 -2°C° 0 mm 4 mps 743 mmHg 81%
    21:00 -2°C° 0 mm 4 mps 744 mmHg 81%
    22:00 -2°C° 0 mm 4 mps 744 mmHg 81%
    23:00 -2°C° 0 mm 3 mps 744 mmHg 82%

    25 March, Monday

    Time Temperature Precipitation Wind Pressure Humidity
    00:00 -2°C° 0 mm 3 mps 744 mmHg 83%
    01:00 -2°C° 0 mm 3 mps 744 mmHg 82%
    02:00 -2°C° 0 mm 3 mps 744 mmHg 81%
    03:00 -4°C° 0 mm 3 mps 744 mmHg 80%
    04:00 -4°C° 0 mm 4 mps 743 mmHg 79%
    05:00 -4°C° 0 mm 4 mps 743 mmHg 78%
    06:00 -4°C° 0 mm 5 mps 743 mmHg 77%
    07:00 -3°C° 0 mm 4 mps 743 mmHg 78%
    08:00 -3°C° 0 mm 4 mps 743 mmHg 80%
    09:00 -2°C° 0 mm 4 mps 743 mmHg 81%
    10:00 -1°C° 0 mm 4 mps 743 mmHg 81%
    11:00 -1°C° 0 mm 4 mps 744 mmHg 80%
    12:00 +1°C° 0 mm 3 mps 744 mmHg 80%
    13:00 +1°C° 0 mm 3 mps 743 mmHg 77%
    14:00 +2°C° 0 mm 3 mps 743 mmHg 74%
    15:00 +3°C° 0 mm 2 mps 743 mmHg 72%
    16:00 +2°C° 0 mm 2 mps 743 mmHg 74%
    17:00 +2°C° 0 mm 2 mps 743 mmHg 77%
    18:00 +1°C° 0 mm 2 mps 743 mmHg 79%
    19:00 +1°C° 0 mm 2 mps 743 mmHg 80%
    20:00 +1°C° 0 mm 2 mps 742 mmHg 82%
    21:00 -1°C° 0 mm 3 mps 742 mmHg 83%
    22:00 -1°C° 0 mm 3 mps 742 mmHg 82%
    23:00 -1°C° 0 mm 3 mps 742 mmHg 82%

    26 March, Tuesday

    Time Temperature Precipitation Wind Pressure Humidity
    00:00 -1°C° 0 mm 3 mps 741 mmHg 82%
    01:00 -1°C° 0 mm 3 mps 741 mmHg 81%
    02:00 -2°C° 0 mm 3 mps 741 mmHg 81%
    03:00 -2°C° 0 mm 3 mps 740 mmHg 81%
    04:00 -2°C° 0 mm 3 mps 740 mmHg 81%
    05:00 -2°C° 0 mm 3 mps 739 mmHg 81%
    06:00 -2°C° 0 mm 3 mps 739 mmHg 81%
    07:00 -1°C° 0 mm 3 mps 738 mmHg 79%
    08:00 -2°C° 0 mm 4 mps 738 mmHg 76%
    09:00 -1°C° 0 mm 4 mps 737 mmHg 74%
    10:00 -1°C° 0.2 mm 5 mps 737 mmHg 76%
    11:00 0°C° 0.2 mm 5 mps 736 mmHg 78%
    12:00 -1°C° 0.2 mm 6 mps 736 mmHg 80%
    13:00 -1°C° 0.7 mm 6 mps 735 mmHg 83%
    14:00 0°C° 0.7 mm 5 mps 734 mmHg 87%
    15:00 -1°C° 0.7 mm 5 mps 734 mmHg 91%
    16:00 0°C° 0.6 mm 5 mps 733 mmHg 93%
    17:00 0°C° 0.6 mm 4 mps 733 mmHg 95%
    18:00 0°C° 0.6 mm 4 mps 733 mmHg 97%
    19:00 0°C° 0 mm 4 mps 733 mmHg 96%
    20:00 0°C° 0 mm 4 mps 733 mmHg 94%
    21:00 0°C° 0 mm 5 mps 733 mmHg 92%
    22:00 -1°C° 0 mm 5 mps 734 mmHg 89%
    23:00 -2°C° 0 mm 6 mps 734 mmHg 87%
    Show more